Weather History for Norwood, MA

Change the Weather History Date:

Sunday, February 17, 2013

  Actual Average Record
Temperature  
Mean Temperature 24 °F -  
Max Temperature 30 °F 37 °F 59 °F (2011)
Min Temperature 19 °F 19 °F 0 °F (2014)
Degree Days  
Heating Degree Days 40    
Moisture  
Dew Point 13 °F    
Average Humidity 67    
Maximum Humidity 89    
Minimum Humidity 38    
Precipitation  
Precipitation 0.01 in - - ()
Sea Level Pressure  
Sea Level Pressure 29.50 in    
Wind  
Wind Speed 15 mph (NW)    
Max Wind Speed 31 mph    
Max Gust Speed 44 mph    
Visibility 4 miles    
Events Fog , Snow    
Averages and records for this station are not official NWS values.
T = Trace of Precipitation, MM = Missing Value Source: NWS Daily Summary

Daily Weather History Graph

Daily Weather History Graph

Search for Another Location

Airport:

Trip Planner

Search our weather history database for the weather conditions in past years. The results will help you decide how hot, cold, wet, or windy it might be!

Date:

Astronomy

Feb. 17, 2013 Rise Set
Actual Time 6:37 AM EST 5:20 PM EST
Civil Twilight 6:09 AM EST 5:48 PM EST
Nautical Twilight 5:36 AM EST 6:21 PM EST
Astronomical Twilight 5:04 AM EST 6:53 PM EST
Moon 10:20 AM EST (2/17) 12:21 AM EST (2/17)
Length of Visible Light 11h 39m
Length of Day
10h 42m
Waxing Crescent, 49% of the Moon is Illuminated
Feb 17
Waxing Crescent
Feb 17
First Quarter
Feb 25
Full
Mar 4
Last Quarter
Mar 11
New

Hourly Weather History & Observations

Time (EST) Temp. Windchill Dew Point Humidity Pressure Visibility Wind Dir Wind Speed Gust Speed Precip Events Conditions
12:53 AM 30.0 °F 20.5 °F 19.9 °F 66% 29.68 in 5.0 mi North 11.5 mph 19.6 mph 0.00 in Snow Light Snow
1:27 AM 28.4 °F 19.1 °F 21.2 °F 74% 29.66 in 2.5 mi North 10.4 mph 20.7 mph 0.00 in Snow Light Snow
1:35 AM 28.4 °F 17.5 °F 21.2 °F 74% 29.65 in 2.0 mi North 13.8 mph 20.7 mph 0.00 in Snow Light Snow
1:53 AM 27.0 °F 18.0 °F 21.9 °F 81% 29.64 in 1.5 mi NNW 9.2 mph 18.4 mph 0.00 in Snow Light Snow
2:41 AM 26.6 °F 17.5 °F 21.2 °F 80% 29.63 in 2.0 mi NNW 9.2 mph 16.1 mph 0.00 in Snow Light Snow
2:53 AM 26.1 °F 16.2 °F 21.0 °F 81% 29.61 in 2.0 mi NNW 10.4 mph 16.1 mph 0.00 in Snow Light Snow
3:15 AM 26.6 °F 17.5 °F 19.4 °F 74% 29.60 in 2.5 mi NNW 9.2 mph - 0.00 in Snow Light Snow
3:28 AM 24.8 °F 15.3 °F 19.4 °F 80% 29.59 in 3.0 mi NNW 9.2 mph - 0.00 in Snow Light Snow
3:53 AM 25.0 °F 12.6 °F 17.1 °F 72% 29.58 in 5.0 mi NW 15.0 mph 20.7 mph 0.00 in Snow Light Snow
4:01 AM 24.8 °F 12.9 °F 17.6 °F 74% 29.57 in 5.0 mi NNW 13.8 mph 24.2 mph 0.00 in Snow Light Snow
4:53 AM 24.1 °F 11.5 °F 16.0 °F 71% 29.57 in 5.0 mi NNW 15.0 mph 23.0 mph 0.00 in Snow Light Snow
5:24 AM 23.0 °F 9.6 °F 15.8 °F 74% 29.54 in 2.0 mi NW 16.1 mph 23.0 mph 0.00 in Snow Light Snow
5:31 AM 23.0 °F 10.1 °F 17.6 °F 80% 29.54 in 1.5 mi NW 15.0 mph 23.0 mph 0.00 in Snow Light Snow
5:50 AM 21.2 °F 8.3 °F 17.6 °F 86% 29.53 in 0.8 mi NNW 13.8 mph 24.2 mph 0.00 in Snow Light Snow
5:53 AM 21.9 °F 10.4 °F 18.0 °F 85% 29.53 in 0.8 mi NNW 11.5 mph 24.2 mph 0.00 in Snow Light Snow
6:30 AM 21.2 °F 6.4 °F 17.6 °F 86% 29.49 in 0.8 mi NW 18.4 mph 27.6 mph 0.01 in Snow Light Snow
6:39 AM 21.2 °F 8.9 °F 17.6 °F 86% 29.50 in 1.0 mi NNW 12.7 mph 27.6 mph 0.01 in Snow Light Snow
6:53 AM 21.0 °F 8.6 °F 17.1 °F 85% 29.49 in 1.2 mi NW 12.7 mph 26.5 mph 0.01 in Snow Light Snow
7:53 AM 19.9 °F 6.2 °F 17.1 °F 89% 29.45 in 1.2 mi NNW 15.0 mph 28.8 mph 0.00 in Snow Light Snow
8:08 AM 19.4 °F 5.0 °F 15.8 °F 86% 29.45 in 0.8 mi NW 16.1 mph 25.3 mph 0.00 in Snow Light Snow
8:31 AM 19.4 °F 6.0 °F 15.8 °F 86% 29.44 in 0.5 mi NW 13.8 mph 27.6 mph 0.00 in Fog , Snow Snow
8:53 AM 19.9 °F 3.9 °F 16.0 °F 85% 29.43 in 0.5 mi NW 20.7 mph 31.1 mph 0.00 in Fog , Snow Snow
9:53 AM 19.9 °F 5.2 °F 17.1 °F 89% 29.40 in 0.5 mi NNW 17.3 mph 32.2 mph 0.00 in Fog , Snow Snow
10:53 AM 19.9 °F 4.3 °F 16.0 °F 85% 29.39 in 0.2 mi NW 19.6 mph 28.8 mph 0.00 in Fog , Snow Snow
11:53 AM 19.9 °F 6.2 °F 16.0 °F 85% 29.39 in 0.5 mi WNW 15.0 mph 24.2 mph 0.00 in Fog , Snow Snow
12:18 PM 21.2 °F 5.2 °F 15.8 °F 80% 29.39 in 0.8 mi NW 21.9 mph 29.9 mph 0.00 in Snow Light Snow
12:29 PM 21.2 °F 6.0 °F 12.2 °F 68% 29.39 in 1.2 mi WNW 19.6 mph 27.6 mph 0.00 in Snow Light Snow
12:59 PM 23.0 °F 9.2 °F 10.4 °F 59% 29.39 in 2.0 mi NW 17.3 mph 35.7 mph 0.00 in Snow Light Snow
1:09 PM 23.0 °F 8.3 °F 8.6 °F 54% 29.39 in 4.0 mi NW 19.6 mph 32.2 mph 0.00 in Snow Light Snow
1:25 PM 23.0 °F 6.6 °F 8.6 °F 54% 29.40 in 1.8 mi NW 25.3 mph 40.3 mph 0.00 in Snow Light Snow
1:40 PM 24.8 °F 11.1 °F 6.8 °F 46% 29.40 in 3.0 mi NW 18.4 mph 33.4 mph 0.00 in Snow Light Snow
1:53 PM 24.1 °F 8.3 °F 8.1 °F 51% 29.40 in 4.0 mi WNW 24.2 mph 36.8 mph 0.00 in Snow Light Snow
2:23 PM 23.0 °F 5.7 °F 8.6 °F 54% 29.42 in 1.8 mi WNW 28.8 mph 38.0 mph 0.00 in Snow Light Snow
2:36 PM 23.0 °F 6.9 °F 6.8 °F 50% 29.42 in 10.0 mi WNW 24.2 mph 38.0 mph 0.00 in Snow Blowing Snow
2:53 PM 23.0 °F 7.2 °F 7.0 °F 50% 29.43 in 10.0 mi WNW 23.0 mph 43.7 mph 0.00 in Snow Blowing Snow
3:00 PM 21.2 °F 4.9 °F 6.8 °F 54% 29.43 in 1.8 mi WNW 23.0 mph 39.1 mph N/A Snow Blowing Snow
3:12 PM 21.2 °F 2.7 °F 8.6 °F 58% 29.44 in 10.0 mi WNW 31.1 mph 43.7 mph N/A Snow Blowing Snow
3:53 PM 23.0 °F 6.6 °F 3.9 °F 44% 29.46 in 10.0 mi WNW 25.3 mph 39.1 mph N/A Snow Blowing Snow
4:53 PM 23.0 °F 6.6 °F 3.9 °F 44% 29.49 in 10.0 mi WNW 25.3 mph 39.1 mph N/A Snow Blowing Snow
5:53 PM 23.0 °F 6.3 °F 5.0 °F 46% 29.53 in 10.0 mi WNW 26.5 mph 39.1 mph N/A Snow Blowing Snow
6:53 PM 23.0 °F 7.2 °F 3.9 °F 44% 29.53 in 5.0 mi WNW 23.0 mph 42.6 mph N/A Snow Blowing Snow
7:08 PM 23.0 °F 7.2 °F 3.2 °F 43% 29.54 in 10.0 mi WNW 23.0 mph 38.0 mph 0.00 in Snow Blowing Snow
7:53 PM 23.0 °F 10.1 °F 1.9 °F 40% 29.55 in 9.0 mi WNW 15.0 mph 28.8 mph 0.00 in Snow Light Snow
8:53 PM 21.9 °F 4.8 °F 1.0 °F 40% 29.59 in 7.0 mi WNW 26.5 mph 33.4 mph 0.00 in Snow Light Snow
9:53 PM 21.0 °F 6.2 °F -0.9 °F 38% 29.63 in 10.0 mi West 18.4 mph 28.8 mph 0.00 in   Overcast
10:53 PM 19.9 °F 5.2 °F -0.9 °F 40% 29.66 in 10.0 mi NW 17.3 mph 31.1 mph 0.00 in   Overcast